Location: Dreilärchen
(47.9312°N, 8.6113°E)
Time: 21:19:21
(UTC+00:00)

Cosmos 304 Rocket - Pass Details

Date: 26 May 2022
Orbit: 679 x 686 km, 74.0° (Epoch: 03 July)

Event Time Altitude Azimuth Distance (km) Brightness Sun altitude
Exits shadow 01:17:24 25° 236° (SW) 1,376 4.8 -16.3°
Maximum altitude 01:19:55 48° 298° (WNW) 898 4.3 -16.1°
Drops below altitude 10° 01:24:36 10° 13° (NNE) 2,146 7.5 -15.7°
Sets 01:27:00 0° 19° (NNE) 3,066 8.8 -15.5°
